Location: Mercogliano
(40.9167°N, 14.7333°E)
Time: 05:02:54
(UTC+00:00)

CENTAUR R/B - Pass Details

Date: 18 September 2020
Orbit: 755 x 1433 km, 63.4° (Epoch: 02 October)

Event Time Altitude Azimuth Distance (km) Brightness Sun altitude
Rises 21:17:05 0° 317° (NW) 4,280 6.7 -42.2°
Reaches altitude 10° 21:20:06 10° 309° (NW) 3,382 5.9 -42.5°
Enters shadow 21:25:43 32° 271° (W) 2,209 4.4 -43.1°
